Regional Weather Roundup
Issued by NWS

Home | Current Version | Previous Version | Graphics & Text | Print | Product List | Glossary On
Versions: 1 2 3 4 5 6 7 8 9 10 11 12 13 14 15 16 17 18 19 20 21 22 23 24 25 26 27 28 29 30 31 32 33 34 35 36 37 38 39 40 41 42 43 44 45 46 47 48 49 50
000
ASUS43 KIND 120909
RWRIN

WEATHER ROUNDUP FOR INDIANA
NATIONAL WEATHER SERVICE INDIANAPOLIS IN
400 AM EST TUE DEC 12 2017

NOTE: "FAIR" INDICATES FEW OR NO CLOUDS BELOW 12,000 FEET WITH NO
SIGNIFICANT WEATHER AND/OR OBSTRUCTIONS TO VISIBILITY.

* - STATION DOES NOT REPORT WEATHER SUCH AS PRECIPITATION OR FOG.

+ - STATION NOT QUALITY CONTROLLED BY THE NATIONAL WEATHER SERVICE.
    USE DATA WITH CAUTION...ESPECIALLY DEWPOINT AND RELATIVE
    HUMIDITY OBSERVATIONS.

INZ001>003-010>013-019-020-121000-
NORTHWEST INDIANA

CITY           SKY/WX    TMP DP  RH WIND       PRES   REMARKS
GARY /AIRPORT/ CLOUDY    27  11  51 NW18G28   29.98R WCI  14
KNOX *+        CLOUDY    30  21  69 NW26G38   29.88R WCI  16
LA PORTE +     LGT SNOW  26  21  80 NW20G31   29.90R WCI  12
MICHIGAN CITY+ FLURRIES  28  19  69 N18G28    29.92R WCI  16
MONTICELLO +   CLOUDY    31  20  63 NW17G25   29.89S WCI  19
RENSSELAER +   CLOUDY    32  18  55 NW22G28   29.93R WCI  19
VALPARAISO     CLOUDY    29  16  58 NW16G28   29.92R WCI  17

$$

LMZ046-743>745-121000-
SOUTHERN LAKE MICHIGAN

STATION/POSITION TIME  TEMP    WIND        PRES    WAVE
                       AIR SEA DIR/SP/G            HT
                 (UTC) (F)     (DEG/KT/KT) (MB)    (FT)
BURNS HARBOR     0840   29     330/ 24/ 31 1013.5R
MICHIGAN CITY    0840   27     330/ 33/ 36   N/A

$$

INZ004-005-014>016-021>024-121000-
NORTH CENTRAL INDIANA

CITY           SKY/WX    TMP DP  RH WIND       PRES   REMARKS
GOSHEN         MIX PCPN  28  19  69 N23G35    29.82R WCI  14
LOGANSPORT +   CLOUDY    32  21  64 NW10G22   29.87R WCI  24
PERU/GRISSOM   CLOUDY    32  25  74 NW20G26   29.84R WCI  20
ROCHESTER +    MOCLDY    32  25  74 NW23G32   29.85R WCI  19
SOUTH BEND     LGT SNOW  25  24  96 N20       29.87R FOG     WCI  11
WARSAW +       FLURRIES  30  23  74 NW21G31   29.83R WCI  17

$$

INZ006>009-017-018-025>027-121000-
NORTHEAST INDIANA

CITY           SKY/WX    TMP DP  RH WIND       PRES   REMARKS
AUBURN +       LGT SNOW  30  27  86 N18G28    29.78R WCI  18
FORT WAYNE     LGT SNOW  32  26  78 NW21G32   29.79R WCI  20
HUNTINGTON +   CLOUDY    32  26  78 NW17G23   29.80R WCI  20
KENDALLVILLE + CLOUDY    28  23  80 NW18G25   29.78R WCI  15

$$

INZ028-029-035-036-043>045-051>053-121000-
WEST CENTRAL INDIANA

CITY           SKY/WX    TMP DP  RH WIND       PRES   REMARKS
CRAWFORDSVL +  CLOUDY    29  23  76 NW18G29   29.92R WCI  17
GREENCASTLE +  CLOUDY    32  28  86 NW9G16    29.93R FOG     WCI  24
LAFAYETTE      CLOUDY    31  24  75 NW13      29.92R WCI  21
TERRE HAUTE    CLOUDY    33  27  78 NW17G28   29.96R WCI  22

$$

INZ030>032-037>040-046>048-054>057-064-065-121000-
CENTRAL INDIANA

CITY           SKY/WX    TMP DP  RH WIND       PRES   REMARKS
FRANKFORT +    CLOUDY    32  28  86 NW10G22   29.91R FOG     WCI  24
GREENWOOD *+   CLOUDY    35  32  88 NW10G20   29.88R WCI  27
INDIANAPOLIS   CLOUDY    31  29  92 NW16G25   29.90R FOG     WCI  20
-EAGLE CREEK   FRZ RAIN  32  28  85 NW14      29.88S FOG     WCI  22
KOKOMO +       CLOUDY    31  25  78 NW18G29   29.85R WCI  19
MARION +       CLOUDY    31  28  86 NW22G29   29.83R WCI  19
MT COMFORT *+  CLOUDY    32  32 100 NW15      29.86R WCI  22
SHELBYVILLE    CLOUDY    33  29  85 NW16      29.86R FOG     WCI  23
ZIONSVILLE +   RAIN      30  28  94 NW15      29.88R WCI  19

$$

INZ033-034-041-042-049-050-058-059-121000-
EAST CENTRAL INDIANA

CITY           SKY/WX    TMP DP  RH WIND       PRES   REMARKS
MUNCIE         FRZ RAIN  33  29  85 NW17G29   29.82R FOG     WCI  22
RICHMOND +     CLOUDY    32  32 100 NW16      29.79S FOG     WCI  21

$$

INZ060-061-067>069-081>083-085>088-121000-
SOUTHWEST INDIANA

CITY           SKY/WX    TMP DP  RH WIND       PRES   REMARKS
EVANSVILLE     CLOUDY    38  35  89 NW7G16    29.99R WCI  33
HUNTINGBURG +  LGT RAIN  36  32  85 NW18G25   29.96R WCI  26
WASHINGTON +   CLOUDY    35  28  78 NW15      29.96R WCI  25

$$

INZ062-063-066-070>080-084-089>092-121000-
SOUTH CENTRAL AND SOUTHEAST INDIANA

CITY           SKY/WX    TMP DP  RH WIND       PRES   REMARKS
BEDFORD +      CLOUDY    36  28  75 NW7G16    29.90R WCI  30
BLOOMINGTON    CLOUDY    34  27  75 NW12G21   29.90R WCI  25
MADISON *+     CLOUDY    37  30  75 W12G17    29.87R WCI  30
NORTH VERNON + CLOUDY    34  28  80 NW15      29.87R WCI  24
SEYMOUR +      CLOUDY    37  28  70 NW21G26   29.88R WCI  27

$$





USA.gov is the U.S. government's official web portal to all federal, state and local government web resources and services.